Location: Bazugues
(43.4465°N, 0.3432°E)
Time: 08:52:53
(UTC+00:00)

NOSS 3-4 (A) - Pass Details

Date: 12 January 2026
Orbit: 769 x 1442 km, 63.4° (Epoch: 10 January)

Event Time Altitude Azimuth Distance (km) Brightness Sun altitude
Rises 19:20:16 0° 237° (WSW) 3,232 7.2 -27.7°
Reaches altitude 10° 19:22:42 10° 244° (WSW) 2,326 6.3 -28.1°
Maximum altitude 19:27:43 43° 316° (NW) 1,143 4.1 -29.0°
Enters shadow 19:28:55 38° 348° (NNW) 1,262 4.1 -29.2°
